owner,sensor,date,latitude,longitude,vertical_datum,wind_speed,wind_to_direction,wind_speed_of_gust,qcFlag 
NDBC,ioos:station:wmo:42057:1,2017-10-01T00:40:00Z,17.0020,-81.5010,5.0,7.0,80.0,9.0,'1111122,1111122,1111122' 
NDBC,ioos:station:wmo:42057:1,2017-10-01T01:40:00Z,17.0020,-81.5010,5.0,8.0,80.0,10.0,'1111122,1111122,1111122' 
NDBC,ioos:station:wmo:42057:1,2017-10-01T02:40:00Z,17.0020,-81.5010,5.0,7.0,100.0,9.0,'1111122,1111122,1111122' 
NDBC,ioos:station:wmo:42057:1,2017-10-01T03:50:00Z,17.0020,-81.5010,5.0,8.0,100.0,10.0,'1111122,1111122,1111122' 
NDBC,ioos:station:wmo:42057:1,2017-10-01T04:40:00Z,17.0020,-81.5010,5.0,8.0,110.0,10.0,'1111122,1111122,1111122' 
NDBC,ioos:station:wmo:42057:1,2017-10-01T05:40:00Z,17.0020,-81.5010,5.0,9.0,110.0,10.0,'1111122,1111122,1111122' 
NDBC,ioos:station:wmo:42057:1,2017-10-01T06:40:00Z,17.0020,-81.5010,5.0,9.0,120.0,10.0,'1111122,1111122,1111122' 
NDBC,ioos:station:wmo:42057:1,2017-10-01T07:40:00Z,17.0020,-81.5010,5.0,8.0,150.0,11.0,'1111122,1111122,1111122' 
NDBC,ioos:station:wmo:42057:1,2017-10-01T08:40:00Z,17.0020,-81.5010,5.0,11.0,130.0,13.0,'1111122,1111122,1111122' 
NDBC,ioos:station:wmo:42057:1,2017-10-01T09:40:00Z,17.0020,-81.5010,5.0,8.0,120.0,11.0,'1111122,1111122,1111122' 
NDBC,ioos:station:wmo:42057:1,2017-10-01T10:40:00Z,17.0020,-81.5010,5.0,8.0,140.0,9.0,'1111122,1111122,1111122' 
NDBC,ioos:station:wmo:42057:1,2017-10-01T11:40:00Z,17.0020,-81.5010,5.0,5.0,140.0,6.0,'1111122,1111122,1111122' 
NDBC,ioos:station:wmo:42057:1,2017-10-01T12:40:00Z,17.0020,-81.5010,5.0,7.0,140.0,8.0,'1111122,1111122,1111122' 
NDBC,ioos:station:wmo:42057:1,2017-10-01T13:40:00Z,17.0020,-81.5010,5.0,7.0,130.0,8.0,'1111122,1111122,1111122' 
NDBC,ioos:station:wmo:42057:1,2017-10-01T14:40:00Z,17.0020,-81.5010,5.0,10.0,160.0,15.0,'1111122,1111122,1111122' 
NDBC,ioos:station:wmo:42057:1,2017-10-01T15:40:00Z,17.0020,-81.5010,5.0,3.0,150.0,4.0,'1111122,1111122,1111122' 
NDBC,ioos:station:wmo:42057:1,2017-10-01T16:40:00Z,17.0020,-81.5010,5.0,6.0,150.0,8.0,'1111122,1111122,1111122' 
NDBC,ioos:station:wmo:42057:1,2017-10-01T17:40:00Z,17.0020,-81.5010,5.0,6.0,150.0,7.0,'1111122,1111122,1111122' 
NDBC,ioos:station:wmo:42057:1,2017-10-01T18:40:00Z,17.0020,-81.5010,5.0,5.0,130.0,6.0,'1111122,1111122,1111122' 
NDBC,ioos:station:wmo:42057:1,2017-10-01T19:40:00Z,17.0020,-81.5010,5.0,12.0,110.0,14.0,'1111122,1111122,1111122' 
NDBC,ioos:station:wmo:42057:1,2017-10-01T20:40:00Z,17.0020,-81.5010,5.0,10.0,150.0,12.0,'1111122,1111122,1111122' 
NDBC,ioos:station:wmo:42057:1,2017-10-01T21:50:00Z,17.0020,-81.5010,5.0,5.0,120.0,6.0,'1111122,1111122,1111122' 
NDBC,ioos:station:wmo:42057:1,2017-10-01T22:40:00Z,17.0020,-81.5010,5.0,6.0,110.0,7.0,'1111122,1111122,1111122' 
NDBC,ioos:station:wmo:42057:1,2017-10-01T23:40:00Z,17.0020,-81.5010,5.0,6.0,120.0,7.0,'1111122,1111122,1111122' 
NDBC,ioos:station:wmo:42057:1,2017-10-02T00:40:00Z,17.0020,-81.5010,5.0,6.0,120.0,8.0,'1111122,1111122,1111122' 
NDBC,ioos:station:wmo:42057:1,2017-10-02T01:40:00Z,17.0020,-81.5010,5.0,7.0,120.0,9.0,'1111122,1111122,1111122' 
NDBC,ioos:station:wmo:42057:1,2017-10-02T02:40:00Z,17.0020,-81.5010,5.0,7.0,130.0,9.0,'1111122,1111122,1111122' 
NDBC,ioos:station:wmo:42057:1,2017-10-02T03:50:00Z,17.0020,-81.5010,5.0,6.0,130.0,8.0,'1111122,1111122,1111122' 
NDBC,ioos:station:wmo:42057:1,2017-10-02T04:40:00Z,17.0020,-81.5010,5.0,6.0,120.0,8.0,'1111122,1111122,1111122' 
NDBC,ioos:station:wmo:42057:1,2017-10-02T05:40:00Z,17.0020,-81.5010,5.0,6.0,150.0,8.0,'1111122,1111122,1111122' 
NDBC,ioos:station:wmo:42057:1,2017-10-02T06:40:00Z,17.0020,-81.5010,5.0,6.0,110.0,8.0,'1111122,1111122,1111122' 
NDBC,ioos:station:wmo:42057:1,2017-10-02T07:50:00Z,17.0020,-81.5010,5.0,6.0,100.0,7.0,'1111122,1111122,1111122' 
NDBC,ioos:station:wmo:42057:1,2017-10-02T08:40:00Z,17.0020,-81.5010,5.0,6.0,90.0,8.0,'1111122,1111122,1111122' 
NDBC,ioos:station:wmo:42057:1,2017-10-02T09:40:00Z,17.0020,-81.5010,5.0,6.0,110.0,7.0,'1111122,1111122,1111122' 
NDBC,ioos:station:wmo:42057:1,2017-10-02T10:40:00Z,17.0020,-81.5010,5.0,8.0,90.0,9.0,'1111122,1111122,1111122' 
NDBC,ioos:station:wmo:42057:1,2017-10-02T11:40:00Z,17.0020,-81.5010,5.0,7.0,110.0,9.0,'1111122,1111122,1111122' 
NDBC,ioos:station:wmo:42057:1,2017-10-02T12:40:00Z,17.0020,-81.5010,5.0,8.0,100.0,9.0,'1111122,1111122,1111122' 
NDBC,ioos:station:wmo:42057:1,2017-10-02T13:40:00Z,17.0020,-81.5010,5.0,7.0,90.0,8.0,'1111122,1111122,1111122' 
NDBC,ioos:station:wmo:42057:1,2017-10-02T14:50:00Z,17.0020,-81.5010,5.0,6.0,110.0,8.0,'1111122,1111122,1111122' 
NDBC,ioos:station:wmo:42057:1,2017-10-02T15:40:00Z,17.0020,-81.5010,5.0,6.0,100.0,7.0,'1111122,1111122,1111122' 
NDBC,ioos:station:wmo:42057:1,2017-10-02T16:40:00Z,17.0020,-81.5010,5.0,6.0,100.0,8.0,'1111122,1111122,1111122' 
NDBC,ioos:station:wmo:42057:1,2017-10-02T17:40:00Z,17.0020,-81.5010,5.0,7.0,100.0,9.0,'1111122,1111122,1111122' 
NDBC,ioos:station:wmo:42057:1,2017-10-02T18:40:00Z,17.0020,-81.5010,5.0,7.0,90.0,9.0,'1111122,1111122,1111122' 
NDBC,ioos:station:wmo:42057:1,2017-10-02T19:40:00Z,17.0020,-81.5010,5.0,9.0,120.0,10.0,'1111122,1111122,1111122' 
NDBC,ioos:station:wmo:42057:1,2017-10-02T20:50:00Z,17.0020,-81.5010,5.0,6.0,100.0,7.0,'1111122,1111122,1111122' 
NDBC,ioos:station:wmo:42057:1,2017-10-02T21:50:00Z,17.0020,-81.5010,5.0,7.0,90.0,8.0,'1111122,1111122,1111122' 
NDBC,ioos:station:wmo:42057:1,2017-10-02T22:40:00Z,17.0020,-81.5010,5.0,9.0,100.0,12.0,'1111122,1111122,1111122' 
NDBC,ioos:station:wmo:42057:1,2017-10-02T23:40:00Z,17.0020,-81.5010,5.0,6.0,100.0,8.0,'1111122,1111122,1111122' 
NDBC,ioos:station:wmo:42057:1,2017-10-03T00:40:00Z,17.0020,-81.5010,5.0,8.0,100.0,9.0,'1111122,1111122,1111122' 
NDBC,ioos:station:wmo:42057:1,2017-10-03T01:50:00Z,17.0020,-81.5010,5.0,9.0,130.0,14.0,'1111122,1111122,1111122' 
NDBC,ioos:station:wmo:42057:1,2017-10-03T02:40:00Z,17.0020,-81.5010,5.0,5.0,110.0,8.0,'1111122,1111122,1111122' 
NDBC,ioos:station:wmo:42057:1,2017-10-03T03:50:00Z,17.0020,-81.5010,5.0,4.0,120.0,6.0,'1111122,1111122,1111122' 
NDBC,ioos:station:wmo:42057:1,2017-10-03T04:40:00Z,17.0020,-81.5010,5.0,4.0,100.0,5.0,'1111122,1111122,1111122' 
NDBC,ioos:station:wmo:42057:1,2017-10-03T05:40:00Z,17.0020,-81.5010,5.0,5.0,100.0,7.0,'1111122,1111122,1111122' 
NDBC,ioos:station:wmo:42057:1,2017-10-03T06:40:00Z,17.0020,-81.5010,5.0,5.0,110.0,6.0,'1111122,1111122,1111122' 
NDBC,ioos:station:wmo:42057:1,2017-10-03T07:40:00Z,17.0020,-81.5010,5.0,4.0,110.0,6.0,'1111122,1111122,1111122' 
NDBC,ioos:station:wmo:42057:1,2017-10-03T08:40:00Z,17.0020,-81.5010,5.0,5.0,90.0,6.0,'1111122,1111122,1111122' 
NDBC,ioos:station:wmo:42057:1,2017-10-03T09:40:00Z,17.0020,-81.5010,5.0,5.0,90.0,6.0,'1111122,1111122,1111122' 
NDBC,ioos:station:wmo:42057:1,2017-10-03T10:30:00Z,17.0020,-81.5010,5.0,4.0,80.0,5.0,'1111122,1111122,1111122' 
NDBC,ioos:station:wmo:42057:1,2017-10-03T11:50:00Z,17.0020,-81.5010,5.0,4.0,90.0,6.0,'1111122,1111122,1111122' 
NDBC,ioos:station:wmo:42057:1,2017-10-03T13:00:00Z,17.0020,-81.5010,5.0,4.0,90.0,5.0,'1111122,1111122,1111122' 
NDBC,ioos:station:wmo:42057:1,2017-10-03T14:40:00Z,17.0020,-81.5010,5.0,5.0,120.0,6.0,'1111122,1111122,1111122' 
NDBC,ioos:station:wmo:42057:1,2017-10-03T15:40:00Z,17.0020,-81.5010,5.0,6.0,100.0,8.0,'1111122,1111122,1111122' 
NDBC,ioos:station:wmo:42057:1,2017-10-03T16:40:00Z,17.0020,-81.5010,5.0,6.0,100.0,7.0,'1111122,1111122,1111122' 
NDBC,ioos:station:wmo:42057:1,2017-10-03T17:50:00Z,17.0020,-81.5010,5.0,6.0,100.0,7.0,'1111122,1111122,1111122' 
NDBC,ioos:station:wmo:42057:1,2017-10-03T18:40:00Z,17.0020,-81.5010,5.0,6.0,110.0,7.0,'1111122,1111122,1111122' 
NDBC,ioos:station:wmo:42057:1,2017-10-03T19:40:00Z,17.0020,-81.5010,5.0,5.0,110.0,6.0,'1111122,1111122,1111122' 
NDBC,ioos:station:wmo:42057:1,2017-10-03T20:40:00Z,17.0020,-81.5010,5.0,5.0,100.0,6.0,'1111122,1111122,1111122' 
NDBC,ioos:station:wmo:42057:1,2017-10-03T21:40:00Z,17.0020,-81.5010,5.0,5.0,80.0,6.0,'1111122,1111122,1111122' 
NDBC,ioos:station:wmo:42057:1,2017-10-03T22:40:00Z,17.0020,-81.5010,5.0,11.0,110.0,13.0,'1111122,1111122,1111122' 
NDBC,ioos:station:wmo:42057:1,2017-10-03T23:50:00Z,17.0020,-81.5010,5.0,4.0,100.0,7.0,'1111122,1111122,1111122' 
NDBC,ioos:station:wmo:42057:1,2017-10-04T00:40:00Z,17.0020,-81.5010,5.0,5.0,120.0,7.0,'1111122,1111122,1111122' 
NDBC,ioos:station:wmo:42057:1,2017-10-04T01:40:00Z,17.0020,-81.5010,5.0,5.0,150.0,6.0,'1111122,1111122,1111122' 
NDBC,ioos:station:wmo:42057:1,2017-10-04T02:50:00Z,17.0020,-81.5010,5.0,3.0,130.0,4.0,'1111122,1111122,1111122' 
NDBC,ioos:station:wmo:42057:1,2017-10-04T03:50:00Z,17.0020,-81.5010,5.0,4.0,100.0,5.0,'1111122,1111122,1111122' 
NDBC,ioos:station:wmo:42057:1,2017-10-04T04:40:00Z,17.0020,-81.5010,5.0,5.0,80.0,6.0,'1111122,1111122,1111122' 
NDBC,ioos:station:wmo:42057:1,2017-10-04T05:40:00Z,17.0020,-81.5010,5.0,10.0,80.0,12.0,'1111122,1111122,1111122' 
NDBC,ioos:station:wmo:42057:1,2017-10-04T06:40:00Z,17.0020,-81.5010,5.0,8.0,90.0,10.0,'1111122,1111122,1111122' 
NDBC,ioos:station:wmo:42057:1,2017-10-04T07:40:00Z,17.0020,-81.5010,5.0,6.0,110.0,7.0,'1111122,1111122,1111122' 
NDBC,ioos:station:wmo:42057:1,2017-10-04T08:50:00Z,17.0020,-81.5010,5.0,6.0,100.0,8.0,'1111122,1111122,1111122' 
NDBC,ioos:station:wmo:42057:1,2017-10-04T09:40:00Z,17.0020,-81.5010,5.0,6.0,90.0,7.0,'1111122,1111122,1111122' 
NDBC,ioos:station:wmo:42057:1,2017-10-04T11:30:00Z,17.0020,-81.5010,5.0,6.0,90.0,7.0,'1111122,1111122,1111122' 
NDBC,ioos:station:wmo:42057:1,2017-10-04T12:00:00Z,17.0020,-81.5010,5.0,7.0,80.0,8.0,'1111122,1111122,1111122' 
NDBC,ioos:station:wmo:42057:1,2017-10-04T13:40:00Z,17.0020,-81.5010,5.0,7.0,80.0,11.0,'1111122,1111122,1111122' 
NDBC,ioos:station:wmo:42057:1,2017-10-04T14:40:00Z,17.0020,-81.5010,5.0,6.0,80.0,8.0,'1111122,1111122,1111122' 
NDBC,ioos:station:wmo:42057:1,2017-10-04T15:40:00Z,17.0020,-81.5010,5.0,7.0,100.0,8.0,'1111122,1111122,1111122' 
NDBC,ioos:station:wmo:42057:1,2017-10-04T16:50:00Z,17.0020,-81.5010,5.0,7.0,110.0,8.0,'1111122,1111122,1111122' 
NDBC,ioos:station:wmo:42057:1,2017-10-04T17:50:00Z,17.0020,-81.5010,5.0,6.0,110.0,8.0,'1111122,1111122,1111122' 
NDBC,ioos:station:wmo:42057:1,2017-10-04T18:40:00Z,17.0020,-81.5010,5.0,7.0,110.0,8.0,'1111122,1111122,1111122' 
NDBC,ioos:station:wmo:42057:1,2017-10-04T19:50:00Z,17.0020,-81.5010,5.0,6.0,90.0,7.0,'1111122,1111122,1111122' 
NDBC,ioos:station:wmo:42057:1,2017-10-04T20:40:00Z,17.0020,-81.5010,5.0,10.0,110.0,12.0,'1111122,1111122,1111122' 
NDBC,ioos:station:wmo:42057:1,2017-10-04T21:40:00Z,17.0020,-81.5010,5.0,7.0,100.0,8.0,'1111122,1111122,1111122' 
NDBC,ioos:station:wmo:42057:1,2017-10-04T22:40:00Z,17.0020,-81.5010,5.0,6.0,80.0,8.0,'1111122,1111122,1111122' 
NDBC,ioos:station:wmo:42057:1,2017-10-04T23:40:00Z,17.0020,-81.5010,5.0,7.0,90.0,8.0,'1111122,1111122,1111122' 
NDBC,ioos:station:wmo:42057:1,2017-10-05T00:50:00Z,17.0020,-81.5010,5.0,5.0,70.0,6.0,'1111122,1111122,1111122' 
NDBC,ioos:station:wmo:42057:1,2017-10-05T01:40:00Z,17.0020,-81.5010,5.0,6.0,70.0,8.0,'1111122,1111122,1111122' 
NDBC,ioos:station:wmo:42057:1,2017-10-05T02:40:00Z,17.0020,-81.5010,5.0,6.0,80.0,7.0,'1111122,1111122,1111122' 
NDBC,ioos:station:wmo:42057:1,2017-10-05T03:50:00Z,17.0020,-81.5010,5.0,6.0,110.0,9.0,'1111122,1111122,1111122' 
NDBC,ioos:station:wmo:42057:1,2017-10-05T04:50:00Z,17.0020,-81.5010,5.0,5.0,140.0,7.0,'1111122,1111122,1111122' 
NDBC,ioos:station:wmo:42057:1,2017-10-05T05:40:00Z,17.0020,-81.5010,5.0,3.0,110.0,4.0,'1111122,1111122,1111122' 
NDBC,ioos:station:wmo:42057:1,2017-10-05T06:40:00Z,17.0020,-81.5010,5.0,3.0,100.0,5.0,'1111122,1111122,1111122' 
NDBC,ioos:station:wmo:42057:1,2017-10-05T07:40:00Z,17.0020,-81.5010,5.0,6.0,100.0,7.0,'1111122,1111122,1111122' 
NDBC,ioos:station:wmo:42057:1,2017-10-05T08:40:00Z,17.0020,-81.5010,5.0,7.0,100.0,9.0,'1111122,1111122,1111122' 
NDBC,ioos:station:wmo:42057:1,2017-10-05T09:40:00Z,17.0020,-81.5010,5.0,10.0,110.0,11.0,'1111122,1111122,1111122' 
NDBC,ioos:station:wmo:42057:1,2017-10-05T10:50:00Z,17.0020,-81.5010,5.0,8.0,100.0,9.0,'1111122,1111122,1111122' 
NDBC,ioos:station:wmo:42057:1,2017-10-05T11:40:00Z,17.0020,-81.5010,5.0,7.0,90.0,9.0,'1111122,1111122,1111122' 
NDBC,ioos:station:wmo:42057:1,2017-10-05T12:40:00Z,17.0020,-81.5010,5.0,8.0,100.0,9.0,'1111122,1111122,1111122' 
NDBC,ioos:station:wmo:42057:1,2017-10-05T13:40:00Z,17.0020,-81.5010,5.0,7.0,90.0,9.0,'1111122,1111122,1111122' 
NDBC,ioos:station:wmo:42057:1,2017-10-05T14:50:00Z,17.0020,-81.5010,5.0,8.0,90.0,10.0,'1111122,1111122,1111122' 
NDBC,ioos:station:wmo:42057:1,2017-10-05T15:50:00Z,17.0020,-81.5010,5.0,9.0,100.0,11.0,'1111122,1111122,1111122' 
NDBC,ioos:station:wmo:42057:1,2017-10-05T16:50:00Z,17.0020,-81.5010,5.0,9.0,100.0,11.0,'1111122,1111122,1111122' 
NDBC,ioos:station:wmo:42057:1,2017-10-05T17:50:00Z,17.0020,-81.5010,5.0,11.0,100.0,14.0,'1111122,1111122,1111122' 
NDBC,ioos:station:wmo:42057:1,2017-10-05T18:40:00Z,17.0020,-81.5010,5.0,9.0,120.0,12.0,'1111122,1111122,1111122' 
NDBC,ioos:station:wmo:42057:1,2017-10-05T19:40:00Z,17.0020,-81.5010,5.0,8.0,110.0,10.0,'1111122,1111122,1111122' 
NDBC,ioos:station:wmo:42057:1,2017-10-05T20:40:00Z,17.0020,-81.5010,5.0,9.0,120.0,10.0,'1111122,1111122,1111122' 
NDBC,ioos:station:wmo:42057:1,2017-10-05T21:50:00Z,17.0020,-81.5010,5.0,7.0,150.0,10.0,'1111122,1111122,1111122' 
NDBC,ioos:station:wmo:42057:1,2017-10-05T22:40:00Z,17.0020,-81.5010,5.0,9.0,150.0,11.0,'1111122,1111122,1111122' 
NDBC,ioos:station:wmo:42057:1,2017-10-05T23:40:00Z,17.0020,-81.5010,5.0,9.0,150.0,11.0,'1111122,1111122,1111122' 
NDBC,ioos:station:wmo:42057:1,2017-10-06T00:40:00Z,17.0020,-81.5010,5.0,9.0,160.0,11.0,'1111122,1111122,1111122' 
NDBC,ioos:station:wmo:42057:1,2017-10-06T01:40:00Z,17.0020,-81.5010,5.0,9.0,170.0,11.0,'1111122,1111122,1111122' 
NDBC,ioos:station:wmo:42057:1,2017-10-06T02:50:00Z,17.0020,-81.5010,5.0,10.0,160.0,12.0,'1111122,1111122,1111122' 
NDBC,ioos:station:wmo:42057:1,2017-10-06T03:50:00Z,17.0020,-81.5010,5.0,14.0,180.0,18.0,'1111122,1111122,1111122' 
NDBC,ioos:station:wmo:42057:1,2017-10-06T04:50:00Z,17.0020,-81.5010,5.0,14.0,180.0,17.0,'1111122,1111122,1111122' 
NDBC,ioos:station:wmo:42057:1,2017-10-06T05:40:00Z,17.0020,-81.5010,5.0,13.0,170.0,16.0,'1111122,1111122,1111122' 
NDBC,ioos:station:wmo:42057:1,2017-10-06T06:40:00Z,17.0020,-81.5010,5.0,14.0,170.0,18.0,'1111122,1111122,1111122' 
NDBC,ioos:station:wmo:42057:1,2017-10-06T07:50:00Z,17.0020,-81.5010,5.0,14.0,190.0,18.0,'1111122,1111122,1111122' 
NDBC,ioos:station:wmo:42057:1,2017-10-06T08:40:00Z,17.0020,-81.5010,5.0,14.0,180.0,17.0,'1111122,1111122,1111122' 
NDBC,ioos:station:wmo:42057:1,2017-10-06T09:50:00Z,17.0020,-81.5010,5.0,14.0,170.0,18.0,'1111122,1111122,1111122' 
NDBC,ioos:station:wmo:42057:1,2017-10-06T10:40:00Z,17.0020,-81.5010,5.0,14.0,160.0,17.0,'1111122,1111122,1111122' 
NDBC,ioos:station:wmo:42057:1,2017-10-06T11:40:00Z,17.0020,-81.5010,5.0,13.0,150.0,17.0,'1111122,1111122,1111122' 
NDBC,ioos:station:wmo:42057:1,2017-10-06T12:40:00Z,17.0020,-81.5010,5.0,12.0,150.0,14.0,'1111122,1111122,1111122' 
NDBC,ioos:station:wmo:42057:1,2017-10-06T13:50:00Z,17.0020,-81.5010,5.0,12.0,150.0,16.0,'1111122,1111122,1111122' 
NDBC,ioos:station:wmo:42057:1,2017-10-06T14:40:00Z,17.0020,-81.5010,5.0,14.0,150.0,18.0,'1111122,1111122,1111122' 
NDBC,ioos:station:wmo:42057:1,2017-10-06T15:40:00Z,17.0020,-81.5010,5.0,13.0,150.0,16.0,'1111122,1111122,1111122' 
NDBC,ioos:station:wmo:42057:1,2017-10-06T16:40:00Z,17.0020,-81.5010,5.0,12.0,160.0,14.0,'1111122,1111122,1111122' 
NDBC,ioos:station:wmo:42057:1,2017-10-06T17:40:00Z,17.0020,-81.5010,5.0,11.0,160.0,14.0,'1111122,1111122,1111122' 
NDBC,ioos:station:wmo:42057:1,2017-10-06T18:40:00Z,17.0020,-81.5010,5.0,11.0,160.0,14.0,'1111122,1111122,1111122' 
NDBC,ioos:station:wmo:42057:1,2017-10-06T19:50:00Z,17.0020,-81.5010,5.0,11.0,160.0,13.0,'1111122,1111122,1111122' 
NDBC,ioos:station:wmo:42057:1,2017-10-06T20:50:00Z,17.0020,-81.5010,5.0,10.0,150.0,12.0,'1111122,1111122,1111122' 
NDBC,ioos:station:wmo:42057:1,2017-10-06T21:40:00Z,17.0020,-81.5010,5.0,10.0,140.0,13.0,'1111122,1111122,1111122' 
NDBC,ioos:station:wmo:42057:1,2017-10-06T22:40:00Z,17.0020,-81.5010,5.0,11.0,130.0,13.0,'1111122,1111122,1111122' 
NDBC,ioos:station:wmo:42057:1,2017-10-06T23:40:00Z,17.0020,-81.5010,5.0,11.0,130.0,13.0,'1111122,1111122,1111122' 
NDBC,ioos:station:wmo:42057:1,2017-10-07T00:50:00Z,17.0020,-81.5010,5.0,10.0,140.0,12.0,'1111122,1111122,1111122' 
NDBC,ioos:station:wmo:42057:1,2017-10-07T01:50:00Z,17.0020,-81.5010,5.0,9.0,140.0,11.0,'1111122,1111122,1111122' 
NDBC,ioos:station:wmo:42057:1,2017-10-07T02:40:00Z,17.0020,-81.5010,5.0,9.0,150.0,11.0,'1111122,1111122,1111122' 
NDBC,ioos:station:wmo:42057:1,2017-10-07T03:40:00Z,17.0020,-81.5010,5.0,10.0,150.0,12.0,'1111122,1111122,1111122' 
NDBC,ioos:station:wmo:42057:1,2017-10-07T04:50:00Z,17.0020,-81.5010,5.0,8.0,150.0,10.0,'1111122,1111122,1111122' 
NDBC,ioos:station:wmo:42057:1,2017-10-07T05:50:00Z,17.0020,-81.5010,5.0,7.0,160.0,9.0,'1111122,1111122,1111122' 
NDBC,ioos:station:wmo:42057:1,2017-10-07T06:50:00Z,17.0020,-81.5010,5.0,9.0,140.0,11.0,'1111122,1111122,1111122' 
NDBC,ioos:station:wmo:42057:1,2017-10-07T07:50:00Z,17.0020,-81.5010,5.0,8.0,150.0,10.0,'1111122,1111122,1111122' 
NDBC,ioos:station:wmo:42057:1,2017-10-07T08:40:00Z,17.0020,-81.5010,5.0,8.0,150.0,10.0,'1111122,1111122,1111122' 
NDBC,ioos:station:wmo:42057:1,2017-10-07T09:40:00Z,17.0020,-81.5010,5.0,8.0,150.0,10.0,'1111122,1111122,1111122' 
NDBC,ioos:station:wmo:42057:1,2017-10-07T10:40:00Z,17.0020,-81.5010,5.0,8.0,130.0,10.0,'1111122,1111122,1111122' 
NDBC,ioos:station:wmo:42057:1,2017-10-07T11:40:00Z,17.0020,-81.5010,5.0,7.0,140.0,8.0,'1111122,1111122,1111122' 
NDBC,ioos:station:wmo:42057:1,2017-10-07T12:50:00Z,17.0020,-81.5010,5.0,6.0,150.0,8.0,'1111122,1111122,1111122' 
NDBC,ioos:station:wmo:42057:1,2017-10-07T13:50:00Z,17.0020,-81.5010,5.0,8.0,150.0,9.0,'1111122,1111122,1111122' 
NDBC,ioos:station:wmo:42057:1,2017-10-07T14:40:00Z,17.0020,-81.5010,5.0,8.0,150.0,10.0,'1111122,1111122,1111122' 
NDBC,ioos:station:wmo:42057:1,2017-10-07T15:40:00Z,17.0020,-81.5010,5.0,9.0,150.0,11.0,'1111122,1111122,1111122' 
NDBC,ioos:station:wmo:42057:1,2017-10-07T16:50:00Z,17.0020,-81.5010,5.0,9.0,160.0,11.0,'1111122,1111122,1111122' 
NDBC,ioos:station:wmo:42057:1,2017-10-07T17:50:00Z,17.0020,-81.5010,5.0,8.0,160.0,10.0,'1111122,1111122,1111122' 
NDBC,ioos:station:wmo:42057:1,2017-10-07T18:40:00Z,17.0020,-81.5010,5.0,8.0,160.0,10.0,'1111122,1111122,1111122' 
NDBC,ioos:station:wmo:42057:1,2017-10-07T19:50:00Z,17.0020,-81.5010,5.0,7.0,170.0,8.0,'1111122,1111122,1111122' 
NDBC,ioos:station:wmo:42057:1,2017-10-07T20:40:00Z,17.0020,-81.5010,5.0,6.0,160.0,7.0,'1111122,1111122,1111122' 
NDBC,ioos:station:wmo:42057:1,2017-10-07T21:40:00Z,17.0020,-81.5010,5.0,5.0,170.0,6.0,'1111122,1111122,1111122' 
NDBC,ioos:station:wmo:42057:1,2017-10-07T22:50:00Z,17.0020,-81.5010,5.0,3.0,150.0,5.0,'1111122,1111122,1111122' 
NDBC,ioos:station:wmo:42057:1,2017-10-07T23:50:00Z,17.0020,-81.5010,5.0,5.0,140.0,6.0,'1111122,1111122,1111122' 
NDBC,ioos:station:wmo:42057:1,2017-10-08T00:50:00Z,17.0020,-81.5010,5.0,5.0,140.0,6.0,'1111122,1111122,1111122' 
NDBC,ioos:station:wmo:42057:1,2017-10-08T01:40:00Z,17.0020,-81.5010,5.0,5.0,140.0,6.0,'1111122,1111122,1111122' 
NDBC,ioos:station:wmo:42057:1,2017-10-08T02:40:00Z,17.0020,-81.5010,5.0,5.0,140.0,6.0,'1111122,1111122,1111122' 
NDBC,ioos:station:wmo:42057:1,2017-10-08T03:40:00Z,17.0020,-81.5010,5.0,5.0,120.0,6.0,'1111122,1111122,1111122' 
NDBC,ioos:station:wmo:42057:1,2017-10-08T04:40:00Z,17.0020,-81.5010,5.0,6.0,120.0,7.0,'1111122,1111122,1111122' 
NDBC,ioos:station:wmo:42057:1,2017-10-08T05:40:00Z,17.0020,-81.5010,5.0,6.0,120.0,8.0,'1111122,1111122,1111122' 
NDBC,ioos:station:wmo:42057:1,2017-10-08T06:50:00Z,17.0020,-81.5010,5.0,6.0,130.0,7.0,'1111122,1111122,1111122' 
NDBC,ioos:station:wmo:42057:1,2017-10-08T07:50:00Z,17.0020,-81.5010,5.0,4.0,130.0,6.0,'1111122,1111122,1111122' 
NDBC,ioos:station:wmo:42057:1,2017-10-08T08:50:00Z,17.0020,-81.5010,5.0,5.0,140.0,6.0,'1111122,1111122,1111122' 
NDBC,ioos:station:wmo:42057:1,2017-10-08T09:40:00Z,17.0020,-81.5010,5.0,5.0,130.0,6.0,'1111122,1111122,1111122' 
NDBC,ioos:station:wmo:42057:1,2017-10-08T10:40:00Z,17.0020,-81.5010,5.0,5.0,110.0,6.0,'1111122,1111122,1111122' 
NDBC,ioos:station:wmo:42057:1,2017-10-08T11:40:00Z,17.0020,-81.5010,5.0,5.0,100.0,6.0,'1111122,1111122,1111122' 
NDBC,ioos:station:wmo:42057:1,2017-10-08T12:40:00Z,17.0020,-81.5010,5.0,6.0,110.0,7.0,'1111122,1111122,1111122' 
NDBC,ioos:station:wmo:42057:1,2017-10-08T13:50:00Z,17.0020,-81.5010,5.0,6.0,130.0,7.0,'1111122,1111122,1111122' 
NDBC,ioos:station:wmo:42057:1,2017-10-08T14:40:00Z,17.0020,-81.5010,5.0,6.0,150.0,7.0,'1111122,1111122,1111122' 
NDBC,ioos:station:wmo:42057:1,2017-10-08T15:40:00Z,17.0020,-81.5010,5.0,2.0,130.0,3.0,'1111122,1111122,1111122' 
NDBC,ioos:station:wmo:42057:1,2017-10-08T16:40:00Z,17.0020,-81.5010,5.0,3.0,130.0,4.0,'1111122,1111122,1111122' 
NDBC,ioos:station:wmo:42057:1,2017-10-08T17:50:00Z,17.0020,-81.5010,5.0,4.0,120.0,5.0,'1111122,1111122,1111122' 
NDBC,ioos:station:wmo:42057:1,2017-10-08T18:40:00Z,17.0020,-81.5010,5.0,5.0,110.0,6.0,'1111122,1111122,1111122' 
NDBC,ioos:station:wmo:42057:1,2017-10-08T19:40:00Z,17.0020,-81.5010,5.0,5.0,90.0,6.0,'1111122,1111122,1111122' 
NDBC,ioos:station:wmo:42057:1,2017-10-08T20:40:00Z,17.0020,-81.5010,5.0,5.0,90.0,6.0,'1111122,1111122,1111122' 
NDBC,ioos:station:wmo:42057:1,2017-10-08T21:40:00Z,17.0020,-81.5010,5.0,3.0,100.0,4.0,'1111122,1111122,1111122' 
NDBC,ioos:station:wmo:42057:1,2017-10-08T22:40:00Z,17.0020,-81.5010,5.0,3.0,80.0,3.0,'1111122,1111122,1111122' 
NDBC,ioos:station:wmo:42057:1,2017-10-08T23:40:00Z,17.0020,-81.5010,5.0,4.0,120.0,5.0,'1111122,1111122,1111122' 
NDBC,ioos:station:wmo:42057:1,2017-10-09T00:40:00Z,17.0020,-81.5010,5.0,8.0,130.0,9.0,'1111122,1111122,1111122' 
NDBC,ioos:station:wmo:42057:1,2017-10-09T01:40:00Z,17.0020,-81.5010,5.0,2.0,80.0,3.0,'1111122,1111122,1111122' 
NDBC,ioos:station:wmo:42057:1,2017-10-09T02:50:00Z,17.0020,-81.5010,5.0,4.0,100.0,4.0,'1111122,1111122,1111122' 
NDBC,ioos:station:wmo:42057:1,2017-10-09T03:50:00Z,17.0020,-81.5010,5.0,3.0,100.0,4.0,'1111122,1111122,1111122' 
NDBC,ioos:station:wmo:42057:1,2017-10-09T04:40:00Z,17.0020,-81.5010,5.0,4.0,100.0,5.0,'1111122,1111122,1111122' 
NDBC,ioos:station:wmo:42057:1,2017-10-09T05:40:00Z,17.0020,-81.5010,5.0,5.0,90.0,5.0,'1111122,1111122,1111122' 
NDBC,ioos:station:wmo:42057:1,2017-10-09T06:40:00Z,17.0020,-81.5010,5.0,3.0,70.0,4.0,'1111122,1111122,1111122' 
NDBC,ioos:station:wmo:42057:1,2017-10-09T07:40:00Z,17.0020,-81.5010,5.0,3.0,90.0,4.0,'1111122,1111122,1111122' 
NDBC,ioos:station:wmo:42057:1,2017-10-09T08:40:00Z,17.0020,-81.5010,5.0,3.0,80.0,4.0,'1111122,1111122,1111122' 
NDBC,ioos:station:wmo:42057:1,2017-10-09T09:40:00Z,17.0020,-81.5010,5.0,3.0,70.0,4.0,'1111122,1111122,1111122' 
NDBC,ioos:station:wmo:42057:1,2017-10-09T10:50:00Z,17.0020,-81.5010,5.0,3.0,80.0,4.0,'1111122,1111122,1111122' 
NDBC,ioos:station:wmo:42057:1,2017-10-09T11:50:00Z,17.0020,-81.5010,5.0,4.0,60.0,5.0,'1111122,1111122,1111122' 
NDBC,ioos:station:wmo:42057:1,2017-10-09T12:50:00Z,17.0020,-81.5010,5.0,4.0,50.0,5.0,'1111122,1111122,1111122' 
NDBC,ioos:station:wmo:42057:1,2017-10-09T13:40:00Z,17.0020,-81.5010,5.0,3.0,60.0,4.0,'1111122,1111122,1111122' 
NDBC,ioos:station:wmo:42057:1,2017-10-09T14:40:00Z,17.0020,-81.5010,5.0,3.0,60.0,4.0,'1111122,1111122,1111122' 
NDBC,ioos:station:wmo:42057:1,2017-10-09T15:40:00Z,17.0020,-81.5010,5.0,3.0,50.0,4.0,'1111122,1111122,1111122' 
NDBC,ioos:station:wmo:42057:1,2017-10-09T16:40:00Z,17.0020,-81.5010,5.0,3.0,60.0,4.0,'1111122,1111122,1111122' 
NDBC,ioos:station:wmo:42057:1,2017-10-09T17:50:00Z,17.0020,-81.5010,5.0,4.0,40.0,4.0,'1111122,1111122,1111122' 
NDBC,ioos:station:wmo:42057:1,2017-10-09T18:50:00Z,17.0020,-81.5010,5.0,4.0,40.0,5.0,'1111122,1111122,1111122' 
NDBC,ioos:station:wmo:42057:1,2017-10-09T19:40:00Z,17.0020,-81.5010,5.0,4.0,40.0,5.0,'1111122,1111122,1111122' 